# Land Stadt Wetter Temperatur Luftdruck Luftfeuchtigkeit Sichtweite Windgeschwindigkeit Windrichtung Ortszeit
1 mn Ulaanbaatar Clear -39 1031 60 6000 0 0 02.08.2018 14:23
2 pe Cusco Clouds 10 1030 93 10000 0 0 02.08.2018 14:23
3 fj Suva Clouds 25 1007 100 10000 0 0 02.08.2018 14:21
4 it Mailand Mist 8 1024 86 4000 2 0 02.08.2018 14:21
5 us Denver Clouds 3 1015 49 10000 2 0 02.08.2018 14:21
6 cl Santiago Clouds 18 984 71 10000 2 255 02.08.2018 14:23
7 ua Kiew Clouds -1 1018 72 10000 2 210 02.08.2018 14:21
8 mx Mexiko Stadt Clear 12 1015 46 10000 2 0 02.08.2018 14:21
9 es Palma de Mallorca Clouds 16 1026 75 10000 2 45 02.08.2018 14:22
10 no Oslo Clouds -1 1014 95 10000 2 326 02.08.2018 14:23
11 it Palermo Clouds 18 1011 72 10000 3 342 02.08.2018 14:22
12 jp Nagasaki Clouds 15 1018 93 10000 3 350 02.08.2018 14:21
13 bo Potisi Clouds 8 1018 80 10000 3 298 02.08.2018 14:22
14 ru Werchojansk Clouds -42 1024 97 10000 3 252 02.08.2018 14:22
15 es Madrid Clear 8 1033 78 10000 4 0 02.08.2018 14:23
16 ru Jakutsk Snow -32 1023 67 10000 4 130 02.08.2018 14:22
17 de Oberstdorf Clouds 11 1029 72 10000 5 133 02.08.2018 14:21
18 et Addis Abeba Clouds 16 1016 77 10000 5 150 02.08.2018 14:23
19 br Rio de Janeiro Clouds 24 1006 94 10000 6 350 02.08.2018 14:22
20 sb Honiara Clouds 26 1009 89 10000 6 280 02.08.2018 14:22
21 bg Warna Clouds 4 1026 75 10000 6 80 02.08.2018 14:21
22 de München Rain 5 1028 94 10000 6 270 02.08.2018 14:21
23 tr Ankara Clouds 4 1021 71 10000 6 220 02.08.2018 14:23
24 it Rom Mist 10 1020 77 5000 6 40 02.08.2018 14:23
25 pt Lissabon Clear 15 1037 82 10000 6 0 02.08.2018 14:22
26 ma Marrakesch Clear 14 1028 62 10000 6 140 02.08.2018 14:23
27 nz Wellington Clouds 11 1020 76 10000 6 50 02.08.2018 14:23
28 cd Kisangani Clouds 36 1008 38 10000 6 175 02.08.2018 14:23
29 cn Peking Clouds -3 1036 24 10000 6 119 02.08.2018 14:23
30 ch Bern Rain 8 1032 88 10000 6 246 02.08.2018 14:23
31 id Jakarta Haze 31 1011 87 5000 6 40 02.08.2018 14:22
32 at Wien Clouds 13 1029 57 10000 6 10 02.08.2018 14:22
33 br Manaus Clear 26 1011 73 10000 6 60 02.08.2018 14:21
34 cn Lhasa Clouds 3 1011 45 10000 7 186 02.08.2018 14:22
35 ma Casablanca Clouds 17 1027 88 8000 7 40 02.08.2018 14:23
36 af Kabul Clear -9 1025 72 10000 7 226 02.08.2018 14:21
37 fr Bordeaux Clouds 12 1035 76 10000 7 200 02.08.2018 14:21
38 do Santo Domingo Clear 23 1017 90 10000 7 343 02.08.2018 14:21
39 us Tucson Clouds 13 1021 34 10000 7 136 02.08.2018 14:21
40 mn Uliastai Clouds -29 1048 74 10000 8 79 02.08.2018 14:23
41 in Nagpur Haze 33 1012 27 5000 9 190 02.08.2018 14:21
42 se Stockholm Snow 1 1010 95 4700 9 130 02.08.2018 14:23
43 bo La Paz Fog 11 1038 82 10000 9 120 02.08.2018 14:22
44 ar Esquel Clouds 16 1010 83 10000 9 261 02.08.2018 14:22
45 in Mumbai Smoke 26 1013 57 2500 9 80 02.08.2018 14:22
46 au Sydney Rain 20 1018 74 10000 9 143 02.08.2018 14:22
47 de Freiburg Clouds 11 1030 85 10000 9 221 02.08.2018 14:22
48 at Innsbruck Clouds 8 1028 81 10000 9 70 02.08.2018 14:23
49 us Chicago Clear 0 1024 78 10000 9 150 02.08.2018 14:23
50 mx Veracruz Clouds 22 1021 68 10000 9 80 02.08.2018 14:21
51 kr Seoul Mist 5 1023 84 10000 9 340 02.08.2018 14:21
52 fi Rovaniemi Snow -9 1007 92 10000 9 50 02.08.2018 14:21
53 es Barcelona Clear 13 1027 71 10000 10 266 02.08.2018 14:22
54 pg Port Moresby Clouds 26 1010 87 10000 10 309 02.08.2018 14:21
55 ck Avarua Clouds 25 1011 73 10000 11 110 02.08.2018 14:22
56 ae Dubai Clear 17 1015 77 10000 11 180 02.08.2018 14:21
57 tr Istanbul Clouds 4 1024 87 10000 11 40 02.08.2018 14:23
58 gb London Clouds 7 1030 88 10000 11 220 02.08.2018 14:22
59 us Las Vegas Clouds 19 1015 41 10000 11 220 02.08.2018 14:21
60 fr Paris Fog 8 1032 97 6000 11 230 02.08.2018 14:22
61 za Kapstadt Clear 21 1010 63 10000 11 340 02.08.2018 14:22
62 ph Manila Clouds 27 1016 70 10000 11 120 02.08.2018 14:21
63 de Stuttgart Rain 9 1026 90 10000 11 250 02.08.2018 14:22
64 us Fairbanks Clouds -13 1001 82 10000 11 30 02.08.2018 14:23
65 us Death Valley Clouds 17 1017 70 10000 12 192 02.08.2018 14:22
66 mg Antananarivo Clouds 24 1018 61 10000 13 120 02.08.2018 14:21
67 es Sevilla Clear 16 1029 71 10000 13 50 02.08.2018 14:22
68 no Hammerfest Clouds -5 1004 63 10000 13 360 02.08.2018 14:22
69 de Trier Clouds 9 1028 92 10000 13 250 02.08.2018 14:21
70 ar Buenos Aires Clouds 23 1011 83 10000 13 80 02.08.2018 14:22
71 de Magdeburg Clouds 8 1021 88 10000 13 283 02.08.2018 14:22
72 de Dresden Clouds 7 1017 93 10000 13 280 02.08.2018 14:22
73 fr Nizza Clear 16 1023 61 10000 13 330 02.08.2018 14:22
74 de Nürnberg Clouds 7 1024 88 10000 13 270 02.08.2018 14:21
75 ch Andermatt Rain 3 1032 90 6753 13 327 02.08.2018 14:23
76 ar Ushuaia Clouds 9 1005 66 10000 13 190 02.08.2018 14:22
77 us Miami Clouds 17 1011 96 10000 13 330 02.08.2018 14:23
78 ca Montreal Snow -11 1005 82 3219 13 140 02.08.2018 14:22
79 gr Athen Clouds 11 1021 76 10000 14 42 02.08.2018 14:22
80 ad Andorra la Vella Clouds 7 1034 64 10000 14 9 02.08.2018 14:22
81 cn Shanghai Clouds 9 1021 93 10000 14 50 02.08.2018 14:21
82 vn Hanoi Clouds 23 1009 88 10000 14 153 02.08.2018 14:21
83 ru Moskau Clouds -7 1029 89 10000 14 184 02.08.2018 14:22
84 uy Montevideo Clouds 21 1013 94 10000 15 180 02.08.2018 14:22
85 de Frankfurt Clouds 10 1028 82 10000 15 200 02.08.2018 14:22
86 is Reykjavik Clouds 6 1003 93 10000 15 140 02.08.2018 14:22
87 au Perth Clear 28 1005 41 10000 15 50 02.08.2018 14:21
88 es Las Palmas de Gran Canaria Clouds 20 1026 80 10000 15 51 02.08.2018 14:21
89 fi Helsinki Clouds 0 1013 79 10000 16 199 02.08.2018 14:21
90 tr Alanya Clear 9 1020 81 10000 16 308 02.08.2018 14:22
91 de Flensburg Clouds 6 1021 95 10000 16 257 02.08.2018 14:21
92 iq Bagdad Clouds 19 1017 52 10000 17 320 02.08.2018 14:22
93 bg Sofia Clouds 5 1025 82 9000 17 110 02.08.2018 14:21
94 de Köln Clouds 9 1026 83 10000 17 270 02.08.2018 14:21
95 de Emden Clouds 8 1023 94 10000 18 250 02.08.2018 14:21
96 th Bangkok Clouds 30 1010 76 10000 19 175 02.08.2018 14:21
97 ec San Cristobal Rain 27 1011 85 10000 19 246 02.08.2018 14:22
98 de Berlin Clouds 8 997 90 10000 19 260 02.08.2018 14:21
99 de Torfhaus Rain 6 1024 100 10000 19 215 02.08.2018 14:22
100 bs Nassau Clouds 21 1018 83 10000 20 340 02.08.2018 14:22
101 de Hannover Clouds 10 1026 82 10000 20 250 02.08.2018 14:21
102 gb Glasgow Clouds 11 1022 82 10000 20 240 02.08.2018 14:21
103 de Kassel Clouds 8 1023 87 10000 20 290 02.08.2018 14:21
104 eg Kairo Clouds 20 1019 34 10000 20 90 02.08.2018 14:22
105 jp Tokio Clouds 17 1016 76 10000 20 60 02.08.2018 14:22
106 in Jagatsukh Clouds 6 1012 99 27 21 203 02.08.2018 14:22
107 de Hamburg Drizzle 7 1021 96 10000 22 290 02.08.2018 14:21
108 us Los Angeles Rain 14 1023 93 4828 22 150 02.08.2018 14:22
109 sa Riad Clear 16 1019 33 10000 22 135 02.08.2018 14:21
110 ke Nairobi Clouds 30 1018 27 10000 22 80 02.08.2018 14:22
111 us New York Clear 1 1027 38 10000 22 340 02.08.2018 14:22
112 qa Doha Clear 19 1016 59 10000 22 330 02.08.2018 14:23
113 ru Anadyr Snow -13 996 78 9000 22 20 02.08.2018 14:23
114 de Braunschweig Clouds 10 1024 72 10000 22 260 02.08.2018 14:21
115 au Darwin Clouds 32 1010 75 10000 22 320 02.08.2018 14:22
116 us Nome Snow -3 1000 93 10000 22 110 02.08.2018 14:23
117 gb Manchester Clouds 11 1025 90 10000 24 280 02.08.2018 14:21
118 es Tarifa Clear 16 1029 73 10000 25 78 02.08.2018 14:21
119 ru Surgut Clear -17 1031 68 10000 26 190 02.08.2018 14:23
120 de Bremen Rain 9 1020 91 10000 26 180 02.08.2018 14:22
121 mv Male Clouds 32 1013 70 7000 26 80 02.08.2018 14:23
122 ru Amderma Snow -10 995 92 247 29 226 02.08.2018 14:23
123 de Hiddensee Clouds 5 1027 85 10000 30 161 02.08.2018 14:21
124 gl Nuuk Clouds 1 975 60 10000 32 50 02.08.2018 14:22
125 ie Dublin Rain 13 1017 82 10000 33 220 02.08.2018 14:21
126 au Alice Springs Clouds 34 1010 27 10000 35 170 02.08.2018 14:21
127 us Honolulu Clouds 23 1021 51 10000 37 50 02.08.2018 14:22
128 de Helgoland Rain 7 1020 95 10000 40 199 02.08.2018 14:22